Wind_Gust
12 19 25 34 27 18 15 14 12 11 6 10 10 8 12 10 9 8 6 9 7 15 17 15 14 15 15 15 17 17 10 7 11 8 16 17 17 18 19 20 20 20 22 18 21 21 22 26 26 29 28 28 24 25 25 24 20 15 18 17 17 17 20 22 21 20 20 19 16 12 14 13 10 13 8 9 6 6 5 5 5 6 6 8 7 8
16 19 30 18 12 14 14 10 7 11 14 11 9 10 13 8 13 9 10 8 9 15 13 8 11 17 19 15 18 17 15 17 14 11 15 18 17 18 24 26 22 21 20 20 21 22 23 25 25 25 25 25 28 28 28 31 34 28 19 20 20 17 18 22 22 21 20 17 19 18 15 11 11 11 12 9 5 6 5 4 6 7 6 7 7 8
28 39 24 9 9 7 10 13 9 13 17 15 12 9 8 12 7 11 13 13 9 9 17 6 9 17 19 19 20 19 20 25 20 18 20 22 21 19 21 23 23 24 24 23 24 23 24 27 27 27 27 27 29 27 25 24 26 26 27 21 16 16 17 15 17 19 18 10 12 13 13 14 12 5 5 7 6 6 6 4 4 5 7 5 6 7
23 26 13 13 8 11 8 12 13 12 10 15 14 12 15 9 12 13 14 13 16 21 7 8 13 16 15 16 22 24 23 23 15 18 21 28 29 27 32 31 28 25 29 26 25 23 23 27 29 28 29 29 29 32 32 33 33 30 26 21 19 17 15 16 14 15 13 13 11 11 13 10 9 10 8 7 6 5 6 5 4 4 6 6 6 6
19 8 14 14 13 14 18 11 16 19 22 15 13 12 11 12 9 13 12 7 7 10 11 11 10 16 10 15 20 21 13 13 10 12 13 8 18 24 22 19 27 32 30 29 26 23 24 24 26 29 27 26 28 32 34 33 34 32 31 28 24 22 19 19 16 16 17 16 14 14 12 11 12 9 7 8 5 5 5 5 5 10 6 7 6 6
17 13 20 19 19 17 19 21 24 24 20 21 17 13 12 9 11 16 10 6 9 13 9 11 20 27 12 15 26 26 11 10 10 17 16 21 21 24 23 23 20 18 23 31 30 29 26 25 23 21 24 25 26 29 32 35 35 30 29 26 23 20 18 19 16 17 18 17 19 17 17 14 10 11 11 13 15 10 10 11 5 5 7 7 5 5
15 9 24 25 22 21 20 23 17 18 23 17 24 15 13 13 9 8 9 4 9 16 12 10 26 28 12 14 19 22 12 8 8 15 20 24 24 24 25 24 27 26 22 18 23 24 25 24 24 23 26 28 30 30 28 25 26 28 28 27 27 25 21 18 17 17 17 16 16 18 18 16 16 16 11 5 6 10 8 5 5 5 5 6 8 6
22 18 20 20 22 27 26 30 26 23 18 31 10 19 14 14 14 16 7 9 14 6 15 7 19 23 21 19 14 17 10 10 12 11 15 21 25 25 24 24 24 25 25 27 29 27 27 28 29 30 30 29 30 27 25 26 25 25 25 25 25 23 21 19 18 18 18 19 16 15 12 12 13 14 13 11 10 8 8 7 4 3 6 7 8 10
18 19 19 24 23 28 34 26 12 16 27 15 10 15 17 16 16 15 8 9 6 3 20 16 6 19 19 20 8 14 10 10 13 18 18 18 22 26 26 27 27 26 28 28 29 29 29 29 29 30 30 26 22 22 26 26 28 28 27 25 21 20 19 17 17 17 14 16 16 15 13 12 6 8 10 9 9 10 8 9 6 7 9 10 10 12
22 21 23 23 24 30 20 15 17 19 22 9 11 11 11 8 9 10 11 10 10 10 23 16 8 16 14 15 14 7 16 20 19 20 20 23 25 24 24 20 20 19 19 22 27 29 29 29 30 29 28 25 26 25 22 19 18 21 23 23 22 18 16 17 16 16 13 12 14 14 12 13 11 10 8 8 10 9 9 11 7 9 11 11 12 12
16 16 13 24 31 25 15 18 21 19 11 5 9 12 18 15 14 4 8 11 7 22 25 16 12 9 16 14 18 19 21 24 17 16 12 11 10 13 14 20 24 24 24 25 25 26 28 27 27 24 28 27 25 24 21 21 21 20 20 20 21 19 16 16 16 15 15 12 12 15 14 14 14 13 13 12 9 10 9 11 8 11 10 9 12 12
15 17 28 26 16 20 16 20 21 19 15 9 18 15 8 14 8 7 9 6 20 26 11 11 14 12 19 15 15 17 9 23 31 26 26 23 23 24 23 23 22 24 25 25 24 23 21 18 19 23 25 26 28 22 22 21 22 23 24 23 21 18 17 17 16 15 14 13 11 10 13 15 15 16 15 16 15 13 13 11 11 11 10 9 12 12
22 18 19 15 14 20 24 17 17 21 19 20 11 14 21 19 20 26 16 24 29 25 11 8 12 7 14 21 20 13 13 25 26 32 33 32 26 25 24 25 26 26 24 26 24 23 22 25 28 27 25 23 23 23 19 18 17 19 20 23 23 20 19 18 16 15 14 12 12 13 13 12 14 15 15 15 15 12 14 13 12 13 11 10 14 12
18 10 11 20 14 23 22 28 22 25 26 24 24 23 25 25 26 29 20 17 11 13 10 6 5 16 10 16 18 22 18 23 25 30 34 33 33 30 28 24 22 22 24 26 26 25 25 26 28 29 27 25 22 17 20 18 17 16 17 19 19 18 18 17 16 14 14 13 12 12 12 12 13 12 12 13 16 12 12 12 13 13 10 11 14 13
17 20 27 21 30 20 27 26 21 15 22 28 13 18 18 21 31 27 21 27 19 13 12 6 10 16 10 17 12 14 19 23 26 29 28 29 29 29 25 22 20 22 22 24 23 25 26 26 25 26 23 21 19 17 19 17 15 14 16 18 18 18 18 16 16 15 15 13 11 10 9 10 9 11 11 10 12 13 12 10 13 12 9 13 12 14
21 20 12 18 5 20 21 20 19 16 19 23 15 11 14 31 14 13 17 14 11 10 9 11 20 12 18 9 6 8 13 18 18 12 13 14 14 16 19 24 25 25 23 21 21 22 20 21 21 20 18 18 17 16 17 16 16 15 17 18 19 20 20 17 16 15 14 12 10 9 9 9 8 8 10 11 9 9 10 12 14 12 10 11 12 11
14 21 5 17 16 17 20 20 21 22 32 25 19 33 27 11 11 11 5 3 7 9 20 8 10 10 17 11 12 10 12 12 14 16 18 17 17 17 21 22 21 22 23 22 22 22 20 19 19 20 17 18 17 16 17 17 17 18 20 20 19 19 17 16 17 15 13 12 12 10 9 10 10 10 12 13 11 11 11 13 13 13 10 9 11 11
17 16 10 12 24 19 17 21 16 24 16 22 31 21 8 7 11 18 18 8 10 16 21 6 14 7 7 19 11 11 14 13 18 20 20 17 19 22 22 24 24 24 23 19 18 18 19 20 21 19 16 17 18 18 17 17 15 18 19 21 21 22 20 18 18 16 14 14 13 12 11 10 11 12 11 12 14 13 14 12 13 12 11 10 11 13
4 9 15 13 16 19 10 20 17 20 16 25 24 12 30 24 18 9 15 10 10 14 13 8 4 9 14 16 5 4 13 10 13 15 16 18 19 21 19 18 15 12 14 18 20 20 19 20 21 21 19 16 16 16 17 17 18 18 16 18 19 20 19 18 17 14 13 12 13 13 13 13 12 11 13 13 13 13 14 13 12 12 11 10 11 14
8 7 12 10 18 17 12 21 25 25 22 7 16 24 14 11 9 11 24 11 18 9 8 12 5 18 17 18 13 13 14 16 16 16 23 27 28 28 23 23 24 24 23 22 22 21 20 19 20 21 22 20 20 19 18 18 18 18 18 19 19 18 17 17 16 15 15 13 14 13 12 11 13 13 14 14 15 15 14 13 14 13 11 11 11 13
10 3 10 12 10 15 21 27 25 25 26 16 23 23 19 17 8 13 8 12 12 15 13 14 12 15 15 14 11 17 19 21 25 26 23 24 24 24 26 28 26 24 24 25 24 22 21 20 20 20 18 19 18 17 17 18 19 19 19 20 21 22 20 18 18 18 15 15 14 15 15 15 14 14 14 14 14 16 14 12 12 12 11 11 12 11
12 6 8 7 14 21 20 11 9 17 16 14 18 16 13 14 11 17 15 8 9 12 13 13 19 17 20 7 7 12 20 24 27 30 26 23 24 24 23 21 23 25 24 25 23 20 19 18 19 19 19 19 21 20 19 18 19 19 18 20 21 21 19 18 19 17 15 13 15 14 15 14 14 15 14 15 15 15 14 12 12 11 11 12 9 11
15 5 3 8 15 16 5 8 14 18 19 14 18 13 13 14 14 15 14 11 6 7 10 9 11 18 14 6 6 11 17 22 24 26 29 26 25 24 24 20 16 13 16 22 23 22 20 20 20 21 21 22 21 20 19 18 20 20 19 20 19 20 18 17 16 17 17 17 16 15 14 15 15 15 15 16 14 14 13 12 11 10 13 12 11 11
10 17 9 11 7 7 4 4 13 17 17 9 11 10 17 22 17 15 14 13 17 5 4 3 10 16 10 7 10 10 18 23 22 23 26 25 24 23 21 18 18 17 15 12 13 14 17 18 18 20 20 21 19 19 18 17 18 19 18 18 19 19 18 17 17 18 18 17 16 15 16 15 14 16 15 15 13 14 12 12 11 11 13 12 13 16
21 12 10 6 15 15 9 9 9 6 17 18 14 11 11 11 9 7 11 4 12 8 12 15 13 12 12 11 11 5 8 11 15 14 20 26 19 17 18 18 18 16 15 15 16 17 16 17 19 20 19 18 17 17 17 17 18 19 17 19 20 19 18 19 19 20 19 18 18 15 16 14 14 16 15 14 14 14 13 12 12 12 13 13 15 13
16 8 11 11 17 24 28 27 24 17 19 11 9 11 7 14 11 11 16 7 10 5 7 10 9 16 17 10 8 7 9 11 8 7 4 5 15 16 12 15 16 17 17 16 18 19 20 19 17 16 16 16 15 17 17 17 18 18 18 21 20 20 19 20 20 20 20 19 19 17 16 15 14 16 15 15 14 14 13 14 13 13 12 14 15 13
11 6 7 11 14 15 10 9 8 13 9 12 6 11 5 7 11 11 13 12 16 9 6 10 12 7 9 8 8 8 4 10 12 11 10 13 11 12 11 13 16 17 19 19 18 20 20 20 20 18 16 16 16 15 19 19 20 20 21 21 19 19 21 20 21 20 20 18 18 17 16 15 15 16 15 15 14 13 13 13 14 14 13 13 14 13
5 7 4 10 9 11 9 7 6 11 11 8 11 9 5 9 10 11 14 15 11 13 8 8 7 7 11 8 9 6 4 6 5 7 11 11 12 14 16 15 14 17 17 18 20 22 23 23 24 22 21 21 23 21 21 22 23 24 25 24 22 21 21 20 20 19 20 19 17 17 17 15 15 15 15 14 14 13 12 14 14 14 14 13 13 13
10 12 5 7 6 5 8 10 10 8 12 13 10 9 8 8 9 13 11 9 10 14 17 7 8 9 9 11 13 16 18 17 13 8 9 11 13 13 15 20 21 21 20 21 21 21 22 25 26 27 27 28 26 30 29 28 26 22 21 21 22 22 22 21 21 19 20 18 18 16 15 16 14 14 14 14 14 13 13 14 14 14 14 14 13 12
12 7 5 4 6 11 12 12 11 11 5 11 7 6 10 12 11 9 8 8 15 8 12 12 13 12 10 13 9 9 8 11 13 12 13 15 15 14 14 15 17 17 19 22 23 23 23 26 27 28 30 31 34 35 32 28 25 24 25 23 24 23 22 23 22 22 19 19 18 16 16 16 15 15 14 14 14 14 15 15 14 15 15 14 13 11
12 11 4 4 9 7 10 9 14 17 14 13 12 13 9 8 7 7 6 6 8 9 8 12 9 10 11 5 5 6 9 14 15 15 16 14 13 15 16 16 16 17 17 19 21 22 23 23 22 23 27 28 31 28 25 21 25 24 24 24 24 23 22 23 22 21 21 20 18 18 17 17 16 15 14 13 13 13 15 14 15 15 15 13 13 11
9 6 6 8 11 8 8 12 11 19 18 16 13 14 12 7 8 5 8 8 7 7 10 13 7 11 10 6 7 7 11 16 18 16 15 15 15 17 18 17 17 17 18 19 21 21 22 23 24 26 26 22 19 20 22 24 23 23 25 25 24 23 22 22 22 22 20 21 20 18 18 17 16 15 15 15 15 13 14 15 15 15 13 14 13 11
7 7 8 8 12 4 8 5 9 10 12 13 12 9 7 4 3 5 5 7 6 15 15 13 15 10 8 8 12 6 10 9 13 15 12 7 11 18 19 20 20 19 20 23 23 23 25 27 27 27 25 22 24 25 25 26 25 24 25 25 23 23 22 21 22 21 21 20 20 19 18 17 17 16 15 14 14 14 15 16 15 15 14 13 11 11
5 10 7 5 13 5 7 8 7 13 12 7 7 3 4 6 7 15 8 7 8 3 14 16 14 10 11 8 15 15 16 21 23 15 15 26 20 12 16 20 22 19 19 20 23 23 23 22 22 24 27 29 29 27 26 24 25 23 23 25 24 24 22 22 21 22 21 20 20 19 18 18 18 17 16 15 15 14 15 16 15 13 12 13 12 12
8 10 5 6 12 5 6 9 16 8 9 8 8 9 7 8 10 17 8 12 15 16 14 9 12 17 18 15 15 21 14 11 11 13 8 6 15 18 19 16 16 17 19 18 17 18 20 21 20 23 23 20 18 18 20 19 21 23 23 24 24 23 24 22 22 21 22 21 19 19 19 18 18 17 15 16 16 15 14 15 15 14 12 13 12 11
6 11 6 10 8 6 10 9 18 11 7 7 9 7 7 8 6 7 12 12 13 11 11 7 17 15 14 13 9 8 10 9 13 11 5 7 14 19 18 19 15 14 17 16 18 18 20 21 24 22 19 15 19 19 21 23 23 25 23 21 22 21 22 22 21 20 20 21 21 22 21 21 19 17 16 16 17 16 16 15 15 14 12 11 10 9
12 9 12 7 7 12 7 8 9 6 5 12 8 11 14 8 10 5 7 6 6 10 12 11 10 5 9 9 13 11 10 11 11 7 11 4 5 10 18 16 13 11 11 10 10 11 13 21 22 16 16 17 20 22 22 23 25 26 24 21 22 22 20 21 21 20 20 20 21 22 21 19 19 18 17 17 16 16 16 16 16 14 14 14 11 11
8 12 7 13 6 8 10 10 9 9 8 9 7 10 4 5 5 6 7 9 10 11 10 10 4 5 11 7 12 14 14 18 10 7 7 5 6 9 12 12 10 11 14 15 15 17 24 19 18 18 23 25 26 26 22 21 23 24 24 21 19 21 21 21 22 22 22 21 21 21 20 19 19 19 18 17 17 17 16 15 15 15 15 16 13 12
11 16 12 15 8 6 10 12 7 8 9 12 13 14 14 6 5 5 9 7 10 11 14 12 4 5 5 12 13 12 17 15 15 15 7 7 7 9 15 13 13 12 13 16 20 20 19 20 22 24 24 27 23 15 20 23 23 23 21 20 22 20 20 19 20 22 21 20 19 19 18 18 18 18 18 18 17 18 17 16 16 14 13 14 13 11
16 11 12 16 9 5 8 9 6 8 9 3 11 13 15 14 5 9 8 12 10 14 13 12 6 6 5 5 3 6 12 16 18 16 11 11 10 8 17 20 19 18 14 13 12 16 21 22 23 23 24 26 22 19 19 21 24 24 26 25 24 23 19 19 20 19 19 20 20 17 16 16 17 16 18 20 18 18 18 17 17 15 15 12 13 12
10 10 13 6 5 5 10 5 5 6 7 7 10 14 17 8 7 9 13 12 9 14 12 8 5 5 4 6 5 10 9 11 8 17 16 14 16 14 12 11 14 18 19 17 18 15 20 21 23 21 17 17 21 21 19 19 22 23 21 22 22 20 20 22 21 21 19 18 18 17 16 15 16 18 18 19 20 18 17 16 17 15 16 14 12 12
8 6 4 7 11 5 3 9 6 7 9 8 14 12 10 5 5 7 11 7 8 9 10 7 6 7 12 8 4 6 3 7 17 16 15 14 17 17 17 17 17 17 14 15 19 20 19 19 17 17 16 14 16 15 16 19 22 21 21 19 18 17 18 20 19 20 20 20 19 17 17 17 17 18 19 19 20 19 17 15 16 15 15 14 13 13
4 8 4 4 4 5 9 9 3 8 5 12 18 11 14 15 11 10 5 6 3 4 4 8 7 9 6 9 7 10 13 12 15 17 15 16 18 18 18 18 20 22 22 19 14 14 23 20 19 19 17 14 16 16 18 23 22 19 18 19 16 15 16 16 17 19 19 19 20 19 18 17 18 18 19 19 20 21 18 15 16 14 15 15 13 14
3 9 5 4 5 8 5 6 7 3 9 10 9 13 7 4 6 6 6 7 6 3 3 7 9 6 5 13 13 11 12 16 13 16 18 17 17 17 15 15 17 18 17 15 19 17 17 22 20 19 13 13 14 14 17 25 24 20 21 20 18 21 18 18 17 18 17 17 18 19 19 19 18 18 19 19 20 20 19 16 15 14 14 15 16 14
8 4 8 9 4 6 5 6 5 6 8 8 4 5 5 7 5 3 5 3 5 7 3 6 7 9 6 11 10 13 13 10 16 15 20 20 21 24 24 22 22 22 22 21 18 16 17 22 21 19 17 14 13 12 14 15 22 21 19 15 16 18 18 17 18 20 18 16 17 18 18 18 19 19 19 19 20 20 19 16 16 16 11 14 14 14
3 2 3 12 8 4 9 5 2 6 6 10 8 8 9 10 10 10 10 8 9 6 5 3 4 4 4 9 15 4 7 11 13 12 14 16 16 12 13 16 14 16 18 17 16 15 16 17 18 20 20 15 14 15 14 15 19 22 18 16 16 18 20 21 20 18 17 17 16 17 19 20 19 18 19 18 18 20 18 19 17 18 14 14 14 13
4 2 4 11 5 7 9 5 10 6 7 10 8 8 8 10 13 12 14 11 7 9 8 7 6 5 3 3 12 14 12 11 13 14 15 17 18 18 18 18 16 18 21 20 18 20 20 17 19 18 19 18 13 14 13 13 12 15 16 16 16 16 16 17 18 18 17 17 18 17 18 19 18 18 17 16 15 16 17 18 16 16 16 14 14 13
4 3 11 5 5 8 9 6 5 5 6 5 9 12 11 11 12 11 9 9 9 8 7 8 8 6 6 6 7 12 10 8 15 16 16 17 20 21 20 19 19 17 14 17 18 18 18 19 17 15 14 16 14 15 15 14 13 13 14 15 15 17 17 16 17 18 16 16 16 17 18 18 16 19 15 13 15 16 13 11 13 16 17 17 16 17
7 6 5 5 9 5 5 2 1 1 11 13 11 8 7 7 10 13 14 15 16 17 15 12 10 7 6 5 3 9 10 7 9 14 16 15 15 20 22 18 16 18 19 18 16 16 18 18 24 23 21 16 14 16 16 16 18 16 15 14 14 16 18 17 15 16 16 17 18 17 17 19 17 17 17 15 15 13 9 8 11 13 9 5 11 18
8 6 2 8 12 5 8 6 2 6 3 8 8 7 8 6 9 13 15 18 16 15 13 13 14 11 8 4 4 4 8 7 6 7 12 13 13 15 20 20 19 18 20 18 18 18 20 20 23 22 21 18 16 16 17 15 13 15 19 15 14 16 18 17 18 17 17 17 18 17 17 17 17 16 17 17 16 15 15 13 14 7 8 12 5 5
6 3 7 7 13 8 8 5 4 11 7 1 3 6 6 6 11 15 12 10 11 9 9 11 13 13 13 11 4 6 6 8 8 11 11 11 14 17 20 19 21 20 19 20 21 19 20 20 18 17 18 16 15 15 15 14 13 14 13 14 14 16 17 17 17 16 16 16 16 16 18 18 17 15 16 15 16 16 17 14 16 17 15 7 5 10
Wind_Speed
4 8 11 16 13 10 7 8 7 4 2 6 3 4 6 6 4 4 3 5 2 4 8 6 5 7 8 8 9 8 4 5 6 5 6 8 10 10 10 11 10 10 9 8 9 8 9 12 12 12 10 11 12 9 8 14 13 6 1 4 6 6 7 8 8 8 9 9 7 5 7 7 5 6 5 5 3 4 3 3 3 3 3 2 0 1
9 9 16 11 6 7 9 6 4 7 3 4 5 4 4 4 7 4 4 4 2 4 1 4 5 7 10 8 9 8 5 6 6 5 7 11 11 10 14 13 11 8 7 10 8 8 10 10 11 13 13 13 14 11 10 12 20 19 13 9 5 5 6 7 6 7 8 7 8 8 7 5 6 6 6 4 3 3 3 3 3 2 2 1 0 1
11 19 12 5 5 4 4 8 6 8 10 4 4 5 4 6 2 7 4 6 2 3 7 2 2 6 8 9 8 7 9 6 7 10 9 13 11 9 11 10 12 11 12 11 11 12 11 13 13 11 12 14 16 17 14 10 8 16 17 13 9 9 7 7 7 7 7 5 6 7 5 8 4 0 1 3 3 3 3 3 2 2 2 0 0 1
10 12 6 9 5 6 4 7 8 7 6 8 3 4 7 4 5 5 6 4 2 5 1 4 5 7 7 6 7 8 6 5 4 5 8 14 15 14 16 17 15 15 16 17 15 15 13 14 14 12 12 13 12 14 13 13 15 14 14 13 12 10 9 9 8 8 5 6 6 6 8 6 4 4 4 4 4 3 3 2 1 1 2 1 1 1
8 1 9 8 7 7 8 6 10 9 10 4 6 4 3 3 3 5 3 2 2 1 1 1 4 7 5 7 9 7 3 4 3 5 5 4 10 15 14 12 14 18 17 16 15 12 14 15 15 16 14 13 14 15 16 16 16 14 18 17 15 13 12 11 10 8 8 8 8 8 7 6 7 5 3 4 3 3 3 3 2 3 2 2 2 1
9 6 11 12 11 10 9 9 13 11 9 6 5 7 6 3 5 4 2 3 5 3 1 4 2 6 5 7 11 10 2 1 3 8 9 9 10 10 13 14 11 9 13 18 20 17 15 15 12 12 13 14 14 15 16 16 15 14 15 16 15 12 10 11 10 10 10 9 10 9 9 7 4 5 5 7 8 5 5 5 3 2 3 3 2 2
5 3 10 15 13 13 12 11 11 11 10 8 8 9 6 6 4 4 2 1 0 2 3 1 10 5 5 5 6 8 6 5 1 7 10 10 12 13 13 13 13 14 12 10 11 12 13 14 15 14 14 15 16 16 14 14 14 12 12 15 16 14 12 10 10 11 10 9 9 11 10 9 8 8 4 2 3 6 4 3 3 3 3 3 3 2
7 10 9 12 14 14 12 12 10 14 9 8 4 12 7 4 6 4 2 4 3 2 6 0 2 2 5 8 6 9 6 4 4 5 9 10 13 16 15 13 14 14 17 16 16 17 17 17 18 18 17 15 16 14 13 14 13 14 13 14 15 13 12 11 11 11 10 10 8 8 7 7 7 7 7 4 4 3 3 4 2 2 3 3 4 5
12 9 9 13 14 12 15 9 6 9 9 2 5 11 10 10 9 3 2 1 1 2 8 2 0 1 3 9 5 2 2 3 6 9 11 11 14 17 17 14 16 17 17 17 16 17 18 18 18 16 16 16 12 12 14 14 12 10 8 9 11 11 11 10 11 10 9 9 9 8 7 7 4 4 5 4 3 4 4 5 2 3 5 6 4 3
6 10 12 11 11 13 6 6 8 11 9 3 6 7 5 4 4 4 3 3 2 2 9 5 2 2 5 7 8 2 2 6 9 12 13 13 14 15 14 10 12 11 11 13 14 15 16 16 16 16 14 12 13 12 9 8 7 8 7 7 8 8 8 9 10 9 8 8 8 8 7 8 6 5 4 4 5 4 4 5 4 5 6 5 5 4
3 10 5 7 11 7 6 8 8 9 4 3 5 6 4 2 1 0 2 3 1 6 12 5 5 3 4 7 7 3 7 9 7 3 4 3 7 9 10 9 12 14 14 13 12 12 14 14 14 11 12 14 9 7 8 8 8 7 8 8 8 6 5 7 9 9 9 8 7 8 8 9 8 7 7 6 4 4 4 5 5 6 6 4 5 5
7 3 9 4 6 4 8 6 8 7 8 5 4 4 3 5 1 2 1 1 4 8 3 4 7 8 5 4 8 9 5 5 15 16 16 14 15 15 14 13 12 13 13 11 12 13 12 11 10 10 11 10 9 8 9 8 8 8 7 8 9 7 7 6 7 8 8 7 6 6 8 8 8 9 8 8 8 7 6 6 7 6 6 4 4 4
8 7 3 2 8 11 8 8 7 8 8 9 5 7 10 3 3 5 2 7 10 6 2 5 8 2 5 9 12 9 8 7 11 12 17 18 16 14 13 16 15 15 12 13 13 12 12 13 13 12 12 10 11 11 12 11 9 8 8 9 9 8 7 7 7 7 7 7 7 7 7 7 7 8 8 8 8 7 7 7 7 7 6 5 5 4
5 2 4 5 5 9 9 11 8 10 11 11 9 10 10 7 8 10 6 1 2 3 6 1 3 4 3 7 11 15 11 12 13 10 14 18 19 18 16 15 13 12 13 14 13 13 13 13 13 13 13 12 10 10 11 11 10 8 8 9 10 9 7 7 7 7 7 6 6 6 6 7 7 7 7 6 8 7 6 6 8 7 6 5 5 5
5 6 9 8 6 10 11 10 11 6 11 11 4 7 8 6 4 6 4 8 7 5 4 2 4 4 5 8 2 9 12 10 11 5 4 7 7 9 10 10 9 9 10 11 12 14 14 14 14 13 12 11 10 10 11 10 9 8 9 10 10 10 9 9 8 7 7 6 5 5 5 6 5 6 5 4 5 7 7 5 8 7 5 6 4 5
10 2 6 9 3 10 11 8 6 8 9 10 5 5 4 13 6 3 5 5 4 2 1 2 5 5 6 2 4 3 3 5 5 7 8 8 8 10 9 12 14 14 13 12 12 13 13 13 12 11 11 10 9 10 9 10 9 8 9 10 11 11 10 9 8 7 7 6 6 5 6 5 5 4 5 5 5 4 5 6 8 7 5 5 5 4
3 4 1 6 8 7 11 9 7 10 9 8 8 13 11 4 1 3 1 1 2 3 6 0 3 3 7 3 5 7 0 2 5 6 8 8 9 10 12 13 13 13 12 13 13 12 13 11 11 11 10 10 9 9 10 10 9 8 10 10 11 11 10 9 8 8 7 7 7 5 6 6 6 6 7 7 6 6 5 7 7 7 6 5 5 5
7 6 5 6 15 9 9 11 8 11 6 6 10 8 4 3 3 2 2 2 2 5 4 1 7 3 2 6 5 3 1 2 5 5 6 7 9 12 13 14 14 14 14 12 9 8 9 11 12 10 9 9 9 9 9 10 8 7 8 10 13 13 13 10 10 9 8 8 7 7 6 6 6 7 6 7 8 7 7 7 7 7 6 5 5 5
0 2 4 8 10 9 4 9 7 11 8 12 9 6 9 6 8 2 2 1 1 1 2 0 1 3 6 4 1 1 3 4 4 5 8 9 11 13 12 12 10 8 8 10 12 11 10 11 10 9 8 9 9 8 8 9 8 8 8 9 11 12 11 11 9 9 7 7 6 6 7 7 7 6 7 7 7 7 8 8 7 7 6 6 5 6
2 1 2 3 10 8 5 7 10 11 12 3 10 10 6 4 2 3 6 3 6 3 3 3 1 6 5 5 8 5 8 5 5 6 10 14 15 14 13 14 14 14 14 13 12 12 10 9 10 9 9 11 11 10 9 10 9 10 9 9 10 10 9 9 8 6 6 6 7 7 7 6 7 7 8 8 9 8 8 8 8 8 7 6 5 5
3 0 1 2 6 8 7 7 11 12 12 6 9 8 4 2 1 5 1 4 4 4 4 4 1 4 6 5 6 8 10 10 12 13 11 11 10 10 12 14 15 15 14 13 12 11 10 9 10 8 9 10 10 9 9 9 10 9 9 9 12 13 12 11 10 11 9 6 7 9 9 8 8 8 7 8 8 9 8 8 7 7 6 6 6 5
1 1 1 2 4 9 9 4 5 7 9 6 7 6 7 7 4 7 6 1 2 3 2 4 5 6 9 2 4 4 8 10 12 13 13 12 12 13 11 11 11 13 11 9 7 6 8 9 10 9 9 10 10 10 10 10 9 10 10 9 11 12 11 11 11 10 9 8 7 9 9 8 7 8 7 9 9 9 8 7 7 7 6 7 5 6
2 0 1 4 4 6 3 6 7 11 11 7 8 4 7 5 5 4 3 4 1 0 5 4 3 6 5 2 2 6 5 10 11 10 11 11 13 14 13 11 6 4 6 7 7 7 8 8 9 10 11 11 11 10 10 10 9 10 10 10 10 11 9 9 8 10 10 9 9 9 9 9 8 8 9 10 8 9 8 7 7 6 7 7 6 5
6 3 3 6 3 4 3 1 8 11 11 5 5 4 7 10 8 6 5 5 7 1 1 1 1 3 4 3 4 6 7 5 4 5 8 8 9 11 11 10 9 10 8 8 8 8 9 9 10 10 11 10 10 10 10 9 9 10 9 8 7 8 9 8 5 7 9 9 9 10 10 9 8 9 9 9 8 9 8 7 6 6 8 7 6 7
3 2 2 3 3 2 3 3 1 2 5 4 4 3 6 5 6 4 5 1 3 3 6 6 3 2 4 2 3 1 3 4 8 8 5 4 1 4 7 6 7 9 10 10 10 11 10 10 11 10 10 9 8 9 9 10 10 10 9 11 12 11 11 9 4 7 10 11 11 10 10 9 9 9 9 9 8 9 8 7 7 7 8 8 7 6
5 3 3 1 4 9 9 9 8 7 9 1 3 6 4 9 7 5 6 0 3 1 3 2 2 8 9 5 4 4 3 2 4 4 3 3 4 6 6 9 10 10 11 11 12 13 13 11 9 10 9 9 8 9 10 10 11 10 11 13 13 11 11 11 10 9 10 10 11 10 10 9 9 10 10 10 9 9 8 8 8 8 6 7 7 6
2 1 2 5 4 4 1 3 2 5 3 4 3 8 2 2 4 5 6 5 5 3 3 4 3 2 5 4 5 5 2 3 3 4 6 6 6 7 7 8 9 10 11 12 12 12 12 13 13 12 11 10 10 9 11 11 12 12 12 13 12 12 11 12 11 10 10 10 11 10 10 9 9 10 9 9 9 8 7 8 8 9 8 6 7 6
0 1 2 5 5 6 5 2 4 6 5 4 7 6 3 6 6 7 6 5 4 7 2 3 4 2 5 5 6 3 1 3 4 4 4 5 8 9 9 10 10 10 9 10 11 14 14 15 15 14 14 14 14 13 13 13 14 14 14 14 12 12 11 10 12 11 10 10 10 10 10 9 9 9 9 8 8 7 7 8 8 8 7 6 7 6
2 1 2 3 1 2 4 2 5 4 6 6 7 6 6 6 5 6 4 4 6 5 7 3 4 3 3 5 5 0 1 3 2 2 2 4 7 9 10 11 12 12 12 13 13 13 14 16 16 17 16 16 16 18 17 16 15 13 12 11 11 12 12 12 12 12 11 10 10 9 9 9 8 8 8 9 8 8 8 8 8 7 6 6 6 5
2 3 2 2 3 3 7 4 4 7 3 6 3 4 7 8 8 6 5 4 8 4 7 7 8 6 6 3 2 1 1 1 1 2 5 7 8 9 9 10 10 11 12 14 15 15 15 16 15 14 13 13 14 15 13 11 12 13 14 13 13 13 13 13 13 13 12 11 10 10 10 10 9 9 9 8 8 8 9 9 8 7 7 6 6 5
2 4 2 1 3 2 5 5 9 12 10 7 7 6 3 5 4 2 3 3 6 3 1 3 6 6 6 3 1 2 4 5 4 5 5 7 8 9 11 11 11 11 11 12 12 11 12 13 12 12 13 12 11 10 11 10 10 11 13 13 13 13 12 13 13 12 12 12 11 11 10 10 9 9 9 7 8 8 9 9 8 8 8 7 6 6
3 2 1 2 3 3 4 6 8 13 12 10 7 8 8 3 4 0 3 2 2 3 2 4 3 5 5 0 2 4 3 5 5 6 6 7 8 10 11 11 11 11 12 12 14 13 14 15 15 15 15 13 12 11 11 12 10 11 13 14 14 13 13 13 13 13 12 12 12 11 11 10 10 9 8 8 8 8 8 8 9 8 8 7 7 6
1 2 1 3 5 2 2 2 6 7 7 6 5 5 5 2 2 2 2 3 1 4 7 6 8 5 3 1 3 3 1 1 2 5 6 4 6 11 12 11 10 10 11 12 13 13 15 16 17 17 16 14 14 14 16 15 14 14 14 14 14 13 13 13 13 13 13 12 12 11 10 10 10 10 9 8 8 8 8 8 9 9 8 7 6 6
2 4 1 1 4 2 4 4 2 6 5 1 2 1 3 1 0 6 2 2 4 0 4 3 3 3 4 4 6 4 1 2 1 2 2 7 11 8 11 14 15 12 12 13 14 15 15 13 13 14 16 16 14 12 11 12 14 13 14 14 13 14 13 13 12 13 13 12 12 12 11 11 11 10 9 9 9 9 9 9 8 7 7 7 7 7
3 5 1 1 4 1 3 5 7 3 1 3 5 5 4 3 7 10 4 2 4 4 5 4 2 6 7 5 6 4 1 2 3 1 1 0 3 9 12 9 9 11 12 12 11 12 13 14 12 8 6 6 9 10 10 8 9 10 11 13 13 13 14 13 14 13 13 13 12 12 11 11 11 11 10 10 9 9 8 9 8 8 7 7 6 6
1 6 2 4 2 1 4 4 5 1 1 4 5 3 2 4 4 3 3 2 5 5 3 4 6 1 2 4 6 6 6 4 3 4 3 1 3 9 11 9 10 9 11 10 12 12 11 7 5 6 6 5 8 10 11 11 12 13 12 12 13 11 12 13 13 12 12 13 13 13 13 12 11 10 10 10 10 9 9 9 9 8 7 6 6 5
5 4 5 2 1 4 2 4 3 2 2 5 3 4 4 2 4 2 1 2 3 4 5 5 5 3 1 0 8 6 5 2 4 2 3 3 1 3 3 6 8 6 6 4 3 4 8 13 10 4 7 10 11 12 13 13 15 15 14 12 13 13 12 12 12 12 12 12 13 13 13 12 12 11 10 10 10 10 9 9 9 8 7 7 5 5
2 5 2 4 2 3 5 4 2 2 1 3 3 2 1 1 1 2 1 1 3 6 5 5 3 2 3 1 5 6 4 8 2 4 2 3 4 5 6 7 6 6 6 6 8 11 12 9 10 11 12 13 12 9 8 10 13 14 14 13 12 13 13 13 14 13 13 13 13 13 12 11 12 12 11 10 10 10 9 9 8 8 6 7 6 6
7 9 5 8 2 2 4 4 1 2 2 5 6 8 6 1 1 3 2 2 2 7 8 6 2 3 2 4 3 2 6 5 6 6 0 4 4 4 7 6 6 6 6 7 9 11 10 9 10 9 6 5 7 8 11 13 15 13 12 11 10 10 12 12 12 13 13 12 11 11 11 11 11 11 11 11 10 10 10 9 8 7 7 6 6 6
10 5 6 7 4 1 3 4 1 0 0 2 6 7 6 3 2 3 2 2 4 9 6 6 4 4 3 1 2 3 6 8 7 1 3 4 4 3 5 9 9 9 8 7 8 11 13 9 7 7 7 9 8 10 12 12 12 14 15 14 14 14 11 8 7 8 10 12 12 10 9 9 10 10 11 12 10 10 10 9 9 9 8 6 6 6
4 4 6 3 2 2 6 1 1 1 3 3 5 9 9 3 3 2 4 3 3 7 4 4 3 1 1 2 2 4 5 5 3 2 7 7 7 7 5 4 5 6 8 7 7 7 8 6 6 7 10 8 9 10 11 12 13 13 12 13 11 11 12 12 11 12 11 11 10 10 10 9 9 11 11 11 12 11 9 9 9 9 9 8 6 7
4 2 1 3 6 2 1 4 1 2 3 3 5 8 5 1 1 3 1 2 1 4 3 3 2 2 3 4 1 1 1 1 3 5 7 7 7 6 7 8 8 7 5 6 9 9 9 8 9 6 7 6 7 8 8 9 10 9 9 8 7 7 10 12 11 11 12 12 11 11 10 10 10 11 10 11 11 10 9 7 9 9 9 8 7 8
1 2 0 1 1 1 3 3 1 2 0 2 10 3 2 2 2 2 2 1 2 1 3 2 1 3 2 4 1 2 3 5 4 5 7 7 8 8 8 8 9 9 9 9 7 5 9 9 9 8 8 7 7 8 11 14 13 11 9 9 8 6 6 8 10 9 8 10 11 12 11 10 12 10 10 10 11 12 10 7 8 8 8 9 8 8
1 2 0 1 1 1 1 1 1 0 4 5 4 4 3 1 3 2 0 4 3 2 1 4 2 1 0 5 7 4 3 5 3 4 6 5 4 4 5 5 6 6 6 4 6 8 7 8 8 8 7 7 8 8 10 15 14 11 12 13 11 12 10 9 10 11 9 7 9 11 11 11 11 11 11 11 11 11 10 8 7 7 7 8 8 8
2 1 2 3 1 1 1 1 1 2 4 4 1 3 2 5 3 0 0 2 3 4 1 1 5 6 2 3 3 5 5 3 4 4 6 6 5 6 7 8 9 10 9 10 9 7 7 10 10 9 8 7 8 7 8 7 11 11 12 9 10 11 11 10 10 11 11 9 9 10 10 11 11 11 11 11 11 11 9 8 8 7 5 7 7 8
2 1 2 4 3 1 4 2 0 3 4 5 5 5 6 6 6 6 5 5 5 2 1 0 1 2 1 0 5 1 1 4 5 4 4 5 5 4 5 6 5 5 5 6 6 7 8 8 8 9 10 7 6 6 6 8 11 14 10 9 10 11 12 13 12 11 11 10 9 9 11 12 11 11 11 10 9 11 10 10 8 8 7 7 7 7
2 0 1 4 1 2 2 3 6 3 3 5 4 4 5 6 6 4 6 5 3 3 4 5 3 3 3 2 1 2 3 4 4 3 3 4 5 6 6 7 7 8 9 9 7 8 10 10 9 9 9 8 5 6 6 6 5 6 8 9 9 10 9 10 11 11 10 10 10 10 11 12 10 9 9 9 8 8 8 8 8 8 8 7 7 6
1 1 6 2 2 3 3 4 3 3 4 3 4 6 7 7 7 6 3 3 3 3 3 2 2 4 4 2 0 3 4 3 4 5 4 4 4 5 5 5 6 6 4 6 7 9 10 11 11 10 9 9 7 8 8 8 8 7 6 4 7 10 10 10 10 10 10 10 10 9 10 10 13 12 8 7 8 8 6 5 7 9 9 9 8 8
3 2 1 1 3 2 2 1 1 0 7 8 6 4 3 3 3 5 5 7 8 9 9 7 5 2 2 1 0 3 4 3 3 4 4 3 3 4 4 4 4 6 6 7 7 9 10 11 11 10 10 9 8 9 9 10 11 10 7 5 4 7 10 10 9 10 10 10 10 9 9 10 9 9 9 8 7 6 4 5 6 6 4 1 5 10
2 3 0 3 6 1 2 3 1 1 1 4 5 5 4 4 2 4 5 9 8 8 7 8 9 7 4 3 2 1 3 3 2 3 4 5 6 5 4 4 4 5 6 6 7 10 12 13 15 14 13 10 7 8 8 6 4 7 11 9 5 7 9 10 10 10 10 9 10 9 9 9 9 9 9 9 8 8 7 10 11 5 5 7 3 4
3 1 3 2 5 3 4 2 1 6 3 0 2 4 3 3 3 7 6 4 4 4 4 6 8 9 9 7 3 1 3 4 4 4 4 3 3 3 4 5 6 5 6 7 8 9 11 11 11 10 10 10 9 8 9 8 7 7 6 8 8 9 9 10 9 9 8 9 9 9 10 9 9 8 8 8 9 8 8 6 8 12 10 4 3 4
Wind_Direction
129 188 199 207 207 199 196 202 196 271 129 155 172 139 193 186 258 267 268 255 183 206 223 213 195 214 232 232 247 247 231 194 202 157 160 157 158 162 152 156 150 156 159 158 166 161 159 156 153 144 140 162 180 176 157 143 133 137 251 288 242 195 178 177 173 169 161 159 150 137 159 157 158 155 152 146 140 155 166 157 149 148 110 67 74 188
154 208 223 210 183 188 193 183 169 218 252 158 176 189 219 184 214 236 232 258 230 176 308 167 196 225 233 235 232 244 251 239 211 174 158 168 172 163 160 156 152 138 144 152 154 160 154 161 160 158 161 165 169 176 169 180 164 160 168 211 224 245 188 179 185 176 173 174 170 158 155 138 147 146 156 148 155 164 154 144 144 137 101 73 63 229
196 215 209 164 160 156 168 174 178 189 221 214 163 180 209 245 240 283 273 281 279 139 257 253 232 250 247 243 244 219 217 225 210 185 175 165 168 155 153 143 142 150 163 165 160 161 165 166 166 170 170 175 175 169 171 184 178 157 168 182 181 201 193 178 178 178 174 157 138 135 135 142 122 19 121 126 134 142 144 145 138 140 120 117 249 171
213 232 167 173 152 164 179 176 172 192 211 216 173 166 205 223 169 256 275 278 224 159 210 235 237 278 292 281 262 252 213 227 226 185 175 173 167 160 166 165 160 162 166 173 170 166 171 171 171 176 176 176 174 169 170 176 175 176 178 170 177 184 187 175 178 175 157 129 107 98 120 109 112 151 118 91 96 109 122 147 133 114 135 182 215 180
199 83 148 158 173 166 186 178 177 186 216 196 193 190 183 224 209 158 239 301 298 347 155 115 344 307 287 295 297 287 245 213 108 132 171 211 176 171 166 160 164 167 169 167 167 171 173 175 181 180 177 172 176 178 176 182 181 186 179 173 172 176 182 176 169 159 141 119 102 100 84 92 83 63 83 116 106 133 165 133 145 200 174 200 203 199
245 266 154 167 180 187 183 188 196 184 212 216 222 190 196 197 226 264 318 3 27 333 311 140 322 263 267 250 254 264 312 179 186 153 181 170 150 159 164 171 183 173 172 170 175 178 176 173 179 186 177 178 180 182 183 185 188 195 180 167 165 169 173 172 162 156 149 146 139 138 136 140 141 151 158 177 177 171 170 181 171 161 181 186 180 193
226 232 189 178 181 190 196 206 195 177 204 191 225 169 189 202 215 249 267 82 337 186 277 107 208 270 316 284 256 256 244 227 208 181 180 167 164 173 175 170 175 170 173 181 173 172 173 183 182 183 185 187 185 189 181 183 190 198 182 168 166 169 170 164 159 161 152 149 154 158 162 164 169 165 189 161 154 159 161 142 151 184 182 167 151 142
179 215 202 186 183 189 199 209 195 185 176 222 147 162 179 199 212 209 155 165 229 247 283 84 138 194 297 283 241 252 259 215 177 195 182 177 173 180 180 181 177 179 178 173 178 184 183 183 185 185 189 189 193 183 181 186 187 191 189 174 169 167 165 164 159 164 161 155 158 157 153 153 161 169 170 168 159 141 144 132 134 128 100 102 110 125
166 195 198 191 189 193 206 194 144 165 183 206 157 148 184 205 222 209 154 160 220 360 281 1 36 26 264 267 274 177 151 206 205 191 196 187 186 186 185 186 186 182 181 176 179 185 185 187 192 188 186 195 189 182 184 185 183 184 191 178 164 163 160 158 160 159 163 155 156 153 148 150 149 132 131 133 130 137 125 103 91 99 89 85 89 119
177 198 201 192 186 207 182 139 171 169 180 245 143 148 159 190 220 204 194 177 264 221 260 241 181 183 281 275 306 6 230 206 205 203 201 192 186 190 190 185 185 181 186 197 191 183 185 189 191 193 190 186 193 188 177 167 163 173 174 178 166 157 157 155 159 153 146 144 142 144 151 147 135 122 116 130 138 136 120 117 105 102 98 106 105 97
174 182 178 190 205 196 151 181 166 173 189 160 125 160 205 197 161 19 137 151 104 240 243 215 188 169 272 270 249 166 214 194 176 206 223 181 189 198 198 183 182 184 189 191 189 190 188 190 192 183 190 198 188 173 167 167 169 169 171 167 160 149 140 153 153 151 146 143 148 149 153 151 146 146 144 139 129 117 119 125 118 111 105 110 115 107
265 214 190 204 166 139 164 182 189 172 183 154 172 152 143 286 51 327 323 71 202 251 262 198 183 153 207 287 277 228 234 223 172 189 189 186 190 189 184 186 192 191 190 184 185 190 185 189 191 189 197 192 185 169 169 168 166 165 163 162 155 146 144 148 146 141 139 142 146 147 150 150 153 154 160 158 156 156 151 143 123 112 109 112 103 103
254 238 251 187 168 172 167 172 188 178 188 194 146 146 166 222 140 251 122 222 216 212 239 186 140 66 243 223 242 256 224 216 214 188 180 184 189 191 186 186 188 190 182 185 191 183 187 189 187 191 194 188 183 181 173 170 167 159 157 163 157 150 147 146 147 146 141 142 147 148 149 151 156 163 163 160 155 159 153 144 127 124 126 125 110 107
271 302 210 233 180 186 167 176 162 185 193 192 185 172 173 171 189 217 214 16 331 278 250 172 214 237 234 285 238 242 239 206 202 197 184 182 185 187 186 182 182 185 187 190 188 188 190 189 191 189 188 188 185 178 172 167 167 162 159 161 157 150 145 143 144 144 141 142 144 149 150 152 158 162 162 161 156 156 150 141 131 128 137 137 137 129
172 230 243 183 215 170 188 193 175 163 175 199 169 148 184 190 175 206 187 204 211 199 249 250 113 233 141 227 261 236 219 209 200 181 191 199 194 187 169 161 170 177 191 192 191 193 191 192 189 186 185 183 182 175 168 164 162 157 158 160 155 148 151 150 148 143 141 138 142 142 140 146 153 151 144 135 141 147 141 136 125 123 126 131 134 127
221 263 256 193 240 167 196 181 148 138 171 199 172 90 108 219 125 152 201 139 182 145 27 160 190 188 176 249 282 320 268 217 138 133 145 164 148 146 165 178 183 188 190 191 195 197 195 191 188 186 181 177 173 167 163 160 158 155 158 160 156 151 148 148 149 150 143 140 138 140 139 136 129 120 112 109 109 108 122 130 125 124 125 127 124 107
143 242 293 167 220 191 189 163 188 154 180 183 148 205 211 112 167 80 40 133 101 81 228 173 293 287 306 317 354 344 140 203 125 130 147 159 155 161 183 191 191 189 187 190 197 194 188 187 191 187 177 169 163 159 161 159 158 155 152 150 145 142 143 151 156 149 145 144 141 141 134 131 126 127 134 134 127 123 120 119 117 120 123 117 112 118
149 239 272 154 199 233 186 174 187 183 150 129 199 209 68 83 119 153 209 347 65 152 241 58 179 267 78 229 332 23 114 214 154 142 151 151 155 175 186 190 192 191 192 195 192 189 187 187 186 184 174 165 156 147 144 147 147 148 149 148 148 148 153 158 156 154 153 148 141 136 130 126 129 129 125 127 127 125 118 110 110 113 116 122 122 115
117 323 251 185 195 202 190 169 184 203 165 186 197 132 159 208 237 320 107 239 121 195 259 344 271 257 175 233 336 243 203 219 152 144 149 168 181 187 185 187 188 184 182 191 191 185 186 185 182 178 161 150 142 133 133 132 135 142 144 147 153 155 155 155 156 152 142 141 137 135 134 132 126 125 125 125 122 120 116 112 109 105 108 105 105 109
360 201 293 171 177 185 168 171 195 194 205 193 123 175 182 102 140 128 198 176 123 227 115 266 37 211 226 219 188 199 211 187 159 166 194 191 189 184 181 180 181 184 189 189 187 189 181 175 172 168 149 146 143 138 135 135 138 144 144 144 145 137 139 145 144 123 110 123 126 123 121 121 126 130 131 134 128 116 112 113 114 116 115 118 114 113
298 191 255 247 190 148 205 191 203 187 181 171 175 183 159 208 215 114 76 131 179 171 178 164 228 278 260 222 166 196 193 192 177 194 201 200 197 195 188 182 182 185 186 186 185 178 170 162 160 145 134 131 129 127 132 139 143 145 142 144 147 147 154 153 141 138 149 140 127 129 129 129 126 125 127 121 114 110 111 113 113 113 121 115 105 102
266 338 214 303 138 196 205 190 171 175 170 182 171 189 164 155 158 167 236 22 98 101 202 134 230 270 268 177 218 207 213 191 200 189 196 200 189 186 189 194 190 187 184 170 161 154 147 148 149 133 126 124 128 134 140 141 141 147 146 151 152 150 159 154 148 142 129 124 136 130 129 124 123 125 122 117 112 110 112 112 113 121 112 100 91 98
162 192 65 302 217 199 190 169 164 163 169 173 163 211 176 156 106 107 135 244 14 189 127 154 122 272 242 216 219 259 216 215 205 194 199 197 189 188 189 184 170 145 130 127 125 128 138 144 147 139 133 131 135 140 141 143 147 148 149 152 156 155 160 141 132 130 132 133 135 129 126 126 126 125 120 114 113 111 112 111 111 107 102 97 96 84
164 266 291 282 290 287 315 343 167 164 159 146 182 132 143 182 177 163 168 181 165 202 68 21 171 249 285 236 230 225 244 234 236 223 220 207 193 187 175 164 151 137 130 123 116 123 134 139 137 138 135 135 139 143 144 144 143 143 144 136 98 66 56 76 109 127 130 129 128 127 124 122 123 119 119 114 115 114 112 112 106 103 99 100 97 96
175 261 160 308 96 72 30 22 85 188 175 172 161 181 172 128 145 168 113 122 154 223 166 118 205 281 266 276 275 183 189 209 210 219 200 231 275 174 158 133 122 124 128 128 129 132 132 135 137 137 136 139 140 140 144 147 143 140 133 113 119 138 144 142 152 138 134 134 130 126 124 124 123 119 115 113 114 114 114 110 105 99 103 102 97 98
171 206 127 187 153 152 170 179 196 191 193 201 128 130 152 150 147 118 200 47 161 269 114 122 250 250 272 309 345 24 105 145 189 182 151 142 145 143 138 143 136 140 145 137 132 132 134 134 128 131 138 141 144 145 146 149 146 140 137 145 150 155 147 152 150 146 136 136 130 129 126 126 123 122 121 120 118 120 118 111 104 101 97 106 109 101
183 150 135 153 158 172 204 204 238 137 103 103 143 132 147 116 121 115 111 113 194 197 152 230 184 279 317 316 326 325 57 140 151 162 167 144 127 128 129 137 143 143 144 140 135 132 130 135 138 141 145 150 152 152 151 153 153 149 148 154 156 155 151 146 143 142 137 135 132 129 129 128 127 126 124 123 124 123 118 113 115 114 114 113 112 112
66 292 247 155 180 203 189 189 187 145 146 161 134 150 155 141 144 118 135 197 175 97 295 266 228 193 259 276 273 275 184 168 179 167 152 135 140 144 144 132 124 123 127 134 138 142 143 144 147 151 156 160 163 161 161 161 162 158 158 158 154 149 146 144 139 139 135 134 130 128 129 126 126 125 124 125 124 121 116 116 115 114 115 115 114 115
163 240 252 136 167 279 283 219 144 124 147 159 142 145 141 173 127 129 201 190 138 175 205 242 197 198 253 238 245 131 351 277 212 162 128 120 108 121 130 135 138 139 141 143 147 150 151 152 159 164 166 169 168 167 170 167 165 156 151 150 145 143 144 141 137 136 135 132 131 131 128 125 122 122 124 125 123 118 117 115 113 111 111 112 108 101
133 260 218 170 158 5 2 6 111 122 80 56 42 149 150 150 180 161 184 178 169 188 195 174 183 222 227 259 316 289 258 125 118 106 110 116 130 125 121 120 125 137 147 153 159 162 163 160 161 164 167 171 177 173 167 162 158 154 151 149 146 147 145 142 142 138 137 134 133 132 129 126 126 127 128 128 123 123 122 119 116 113 111 109 106 102
139 268 306 193 72 349 335 6 66 80 87 72 35 19 30 116 112 103 104 82 74 42 351 185 158 237 266 227 258 31 94 93 120 142 140 136 129 122 120 124 129 138 144 148 152 155 155 156 158 164 170 173 174 165 161 167 164 148 141 145 148 146 147 143 142 140 138 136 136 135 132 130 131 131 128 124 120 121 121 121 119 117 114 111 108 102
97 241 57 60 72 332 346 36 88 90 83 77 46 21 6 33 109 149 91 221 151 184 184 147 161 240 277 320 65 55 96 140 164 161 148 148 138 127 124 129 135 140 147 153 154 158 160 163 171 175 173 170 167 163 159 158 154 149 149 150 149 149 148 145 142 140 138 137 137 137 137 134 133 130 127 123 123 122 122 124 123 123 121 118 108 99
169 125 60 68 77 305 290 53 95 78 57 21 346 326 308 278 182 119 61 58 58 145 118 135 217 222 221 191 89 16 19 222 184 187 145 134 152 137 131 126 129 143 151 159 161 163 165 173 179 178 175 170 167 170 171 162 155 157 155 154 149 143 146 144 141 138 138 141 139 139 138 139 137 135 130 126 124 124 126 127 124 125 123 114 108 102
68 96 88 106 112 245 318 344 24 54 54 250 242 211 231 306 69 93 38 338 320 306 205 195 235 285 132 123 151 190 218 253 228 250 310 171 151 141 143 155 157 158 154 159 169 177 181 180 182 183 181 177 170 164 158 158 156 155 151 146 143 145 144 142 142 141 143 143 143 142 141 141 140 137 133 130 129 130 132 129 127 124 118 111 102 101
94 82 72 117 101 157 345 35 58 63 205 241 301 289 255 190 93 102 130 82 357 358 346 337 282 198 190 134 109 110 116 337 55 34 26 33 140 142 150 148 147 157 166 169 180 188 187 186 180 165 136 142 145 141 139 135 135 134 139 143 145 146 145 147 146 147 148 147 146 142 142 142 141 138 137 133 133 133 130 126 123 120 117 112 115 116
66 89 143 39 65 36 44 37 89 221 236 286 284 311 31 88 92 84 13 20 38 13 329 303 282 284 331 113 97 101 106 109 48 37 5 25 140 144 146 159 164 168 172 184 180 187 186 171 139 122 127 129 141 152 154 146 140 135 138 142 141 148 148 148 147 149 149 147 148 145 146 144 142 140 138 135 134 131 129 128 125 120 114 107 99 92
143 95 89 75 22 130 150 106 148 305 358 350 5 6 27 34 341 45 116 328 62 10 12 324 314 25 41 312 120 114 113 60 49 339 348 359 33 30 98 138 145 147 144 156 153 88 67 77 85 122 157 165 165 164 163 150 145 140 141 148 152 151 151 149 150 152 152 149 151 147 146 144 141 141 141 137 133 132 130 125 119 116 113 108 107 106
81 108 213 98 343 111 118 63 22 31 130 274 232 280 252 254 243 188 116 308 337 13 17 4 347 48 62 21 105 132 118 70 68 271 290 16 61 82 89 102 101 109 115 109 96 99 105 136 171 174 173 176 175 155 129 135 138 141 146 151 154 151 156 160 159 158 154 153 151 146 143 141 142 143 143 137 133 132 128 122 115 111 114 119 120 105
48 77 102 107 165 43 48 101 155 132 243 219 283 296 292 206 258 126 76 6 305 2 2 357 14 65 108 138 121 126 108 144 222 237 340 74 70 99 114 113 117 123 125 130 129 136 157 181 169 163 152 142 140 132 142 142 142 142 144 146 147 153 160 166 160 157 152 142 135 137 142 141 141 141 136 126 124 125 121 120 119 115 110 110 104 101
50 8 34 43 48 54 137 88 75 172 104 315 281 291 297 352 108 77 94 265 299 345 355 2 18 70 80 89 97 67 126 174 225 261 74 86 98 80 128 140 137 136 134 131 136 148 163 172 135 136 147 156 150 142 142 142 143 148 153 157 162 163 157 145 138 126 128 137 139 136 132 137 137 131 125 121 122 124 126 128 122 122 116 109 108 105
23 13 46 96 126 35 79 114 19 342 287 273 279 304 317 308 90 90 187 239 307 325 339 5 324 299 158 113 105 139 212 181 199 163 108 106 98 97 93 94 108 127 135 137 138 127 125 122 120 162 175 152 141 142 141 144 145 150 158 162 163 151 143 140 142 144 142 137 135 133 135 134 135 130 126 128 130 129 126 125 123 122 120 118 110 105
14 79 330 61 36 38 134 102 167 220 239 261 288 291 282 24 128 206 234 180 246 291 353 1 333 335 66 87 7 267 309 162 165 125 117 119 126 132 125 124 120 116 125 142 147 143 133 132 156 148 79 89 120 122 123 128 135 144 148 143 132 136 140 139 142 143 143 139 135 135 134 134 128 125 123 122 122 119 115 117 124 126 123 121 120 111
240 93 81 84 205 73 40 71 36 91 346 66 312 327 31 113 219 214 289 295 194 300 340 349 10 323 113 91 76 104 78 83 107 129 126 134 139 146 143 138 137 141 146 144 145 152 139 137 143 134 127 109 110 121 129 132 136 135 128 125 121 108 108 121 131 131 131 137 139 137 135 132 130 125 125 127 126 121 118 121 118 121 123 122 119 117
201 78 223 275 188 136 72 83 128 198 264 323 18 103 310 348 293 300 83 325 14 72 336 324 326 296 191 126 139 130 128 119 108 128 126 130 125 110 109 112 116 124 137 149 149 146 137 123 121 118 115 114 116 131 143 143 146 152 147 141 140 138 141 142 134 127 127 135 137 133 132 131 125 122 126 127 123 119 121 122 123 125 130 128 126 123
324 152 187 140 253 107 167 192 269 267 263 291 24 25 347 339 349 263 153 30 10 0 13 34 324 334 329 118 108 133 140 164 151 153 149 146 142 143 142 154 155 158 158 157 153 140 134 131 125 115 108 109 117 124 134 135 133 131 134 142 137 135 139 139 134 131 132 138 137 131 128 123 124 128 129 129 127 122 121 123 129 120 120 120 119 123
10 114 141 82 104 119 74 87 330 7 1 1 26 33 33 18 21 33 39 29 9 341 306 175 280 310 334 359 120 110 169 163 151 155 138 136 132 132 135 138 145 136 134 128 129 130 119 106 105 112 111 104 104 113 119 138 148 143 143 142 144 142 140 139 136 133 132 133 131 127 124 123 126 128 130 131 133 134 139 142 140 130 127 121 123 126
304 327 71 101 182 59 79 345 40 21 5 18 16 21 47 46 30 23 41 34 353 4 11 6 357 338 311 336 314 159 161 170 164 154 144 133 139 149 153 153 156 157 152 151 144 126 117 115 106 102 100 94 77 77 69 76 59 96 125 131 126 124 125 124 125 127 128 129 127 124 124 125 128 128 128 127 125 128 135 135 129 128 131 133 131 127
350 89 69 32 57 101 164 131 115 81 67 30 25 33 26 10 23 27 35 26 20 19 47 24 14 19 11 17 348 159 156 169 166 168 162 151 144 153 155 157 151 145 147 136 133 124 116 114 114 112 109 101 95 87 82 76 75 72 76 85 119 124 119 120 124 125 125 122 121 122 124 122 125 125 122 123 128 130 126 126 134 142 151 153 148 144
268 18 102 201 91 56 83 126 205 244 46 23 12 30 13 2 22 29 31 36 29 27 9 8 38 55 103 84 38 148 142 168 176 170 147 123 133 147 152 146 156 150 140 140 132 125 121 116 111 110 107 109 115 122 126 129 128 119 100 96 109 117 118 116 109 107 109 112 112 114 120 124 125 123 117 99 75 54 66 123 144 134 118 105 158 155
54 35 316 73 80 105 176 207 114 130 351 320 357 345 342 336 21 52 36 38 30 25 12 16 2 3 22 53 92 122 135 134 130 137 148 158 163 155 135 135 146 149 143 140 133 129 129 130 132 140 145 144 136 124 112 105 98 124 134 131 128 119 112 112 111 111 113 115 117 121 122 121 121 122 121 122 121 109 82 49 57 61 136 157 171 168
99 205 125 135 156 194 243 245 177 119 113 268 283 311 319 323 31 54 35 29 29 35 20 31 18 4 357 342 351 116 152 146 155 134 122 139 153 135 132 143 149 154 149 143 137 145 147 152 151 141 129 128 129 124 125 124 125 121 122 126 129 123 119 119 114 113 116 119 125 130 129 126 124 124 123 128 127 125 119 99 44 40 41 56 143 152